cliquez pour ajouter le site Runraid à vos favoris  English version (google)  Retour à l'accueil Ecrire à l'auteur du site Runraid : Michel Jourdan



Les prochaines courses


Les derniers résultats

cliquez pour visualiser la page complète relatant la chronologie des éruptions du Piton de la Fournaise
éruptions Piton de la Fournaise


Ile de La Réunion

 Diagonale des Fous 

Ecrire au créateur du site : Michel Jourdan
Contact


2015-10-24 - Marathon Des Causses 2015

Pour consulter le palmarès d'un coureur, un clic sur son nom !

Vous avez des remarques, corrections, ... sur ces résultats , un clic sur --> pour me transmettre toute information concernant les classements


Marathon Des Causses 2015 - 2015 : classement des 824 finishers
Place Nom Temps Cat. Club Sexe Clt/cat.
Place Nom Temps Cat. Club Sexe Clt/cat.
1 FLEURETON Cedric 02:50:08 V1M TEAM NEW BALANCE M 8003
2 JAILLARDON Renaud 03:09:21 SEM - M 1 SEM 8952
3 MONDOT Yann 03:11:51 SEM - M 2 SEM 8055
4 NAEL Thibaud 03:17:48 SEM TEAM TERRE DE RUNNING M 3 SEM 8007
5 OLIVE Aurelien 03:22:07 SEM - F 4 SEM 8985
6 CELLE Stephane 03:26:44 SEM TEAM TERRE DE RUNNING M 5 SEM 8050
7 LE BRIS Francois 03:31:19 SEM TEAM OXSITIS / ODLO M 6 SEM 8046
8 AZEVEDO Sylvain 03:31:27 SEM - M 7 SEM 8651
9 MORILLO Cyril 03:31:28 V1M - M 2 V1M 8151
10 MONSARAT Loic 03:33:45 SEM - M 8 SEM 8069
11 HERVY Evan 03:34:41 SEM - M 9 SEM 8198
12 CORRIAUX Julien 03:35:21 SEM - M 10 SEM 8237
13 DEWALLE Christel 03:35:34 SEF TEAM ADIDAS F 1ere F 8002
14 VERNIERES Philippe 03:35:52 V1M - M 3 V1M 19011
15 GIORDANENGO Stephane 03:35:54 SEM - M 11 SEM 8064
16 RABIER Cyril 03:40:25 V1M - M 4 V1M 8054
17 LAMARQUE Regis 03:45:47 SEM - M 12 SEM 8637
18 PASERO Mikael 03:46:14 SEM TEAM NEW BALANCE M 13 SEM 8067
19 PANN Roland 03:46:40 V1M - M 5 V1M 8722
20 BLANCHET Jerome 03:47:41 SEM - M 14 SEM 8514
21 BELKHIER Nadir 03:48:21 SEM - M 15 SEM 8660
22 HELIEZ Sylvain 03:48:54 SEM - M 16 SEM 8853
23 MALLEVILLE Adrien 03:49:08 SEM - M 17 SEM 8065
24 FERRATO Amandine 03:51:34 SEF TEAM NEW BALANCE F 2eme F 19021
25 LEBLANC Yohan 03:51:36 SEM - M 18 SEM 8349
26 HOUDU Eric 03:51:54 V1M - M 6 V1M 8951
27 FLATRES Matthieu 03:54:06 SEM - M 19 SEM 8946
28 GAUTHIER Pierre 03:54:33 V1M - M 7 V1M 8280
29 JANICOT Yann 03:54:34 V1M - M 8 V1M 8545
30 MASSONNET Romain 03:54:55 SEM - M 20 SEM 8339
31 BUGNARD Corail 03:55:07 SEF TEAM TECNICA F 3eme F 8047
32 CAMALET Daniel 03:55:15 SEM - M 21 SEM 8453
33 HAMON Benjamin 03:55:49 ESM - M 1 ESM 8539
34 FLOTTES Cedric 03:58:23 SEM - M 22 SEM 8996
35 TREMOLIERES Sebastien 03:59:12 V1M - M 9 V1M 8924
36 TORRES Clement 03:59:14 SEM - M 23 SEM 8150
37 MARCHe Freddy 03:59:33 SEM - M 24 SEM 8776
38 RUAS Simon 04:01:12 SEM - M 25 SEM 8878
39 DAS DORES Jerome 04:01:19 SEM - M 26 SEM 19008
40 NADDEO Guillaume 04:01:35 V1M TEAM ST YORRE M 10 V1M 19001
41 LARRIBEAU Aurelie 04:01:45 SEF - F 4eme F 8052
41 LAFAYE Caroline 04:01:45 SEF - F 5eme F 8062
43 POULENARD Sebastien 04:04:57 V1M - M 11 V1M 8417
44 VAN DER STUYF Christophe 04:05:25 SEM - M 27 SEM 8149
45 VERRUE Vincent 04:06:44 SEM - M 28 SEM 8084
46 DELEURENCE Francois Xavier 04:06:53 V1M - M 12 V1M 8296
47 CASTET Florent 04:07:26 SEM - M 29 SEM 8238
48 COLLET Fabrice 04:07:33 V1M - M 13 V1M 19002
49 MULLER Sebastien 04:08:15 V1M - M 14 V1M 8221
50 AUDIBERT Armand 04:08:21 SEM - M 30 SEM 8790
51 DUBUISSON Antoine 04:08:54 ESM - M 2 ESM 8356
52 ROYER Pierre 04:09:30 SEM TEAM ST YORRE M 31 SEM 8999
53 MAURY Frederic 04:09:39 V1M - M 15 V1M 8361
54 GAUTIER Yannig 04:09:44 SEM - M 32 SEM 8596
55 STACHOWSKI Jean Marc 04:10:18 V2M - M 1 V2M 8420
56 BOOSZ Edouard 04:10:30 SEM - M 33 SEM 8639
57 THOMAS Flavien 04:11:08 SEM - M 34 SEM 8949
58 LIN WEE KUAN Cyril 04:11:25 SEM - M 35 SEM 8262
59 DEHOUCK Julie 04:11:27 SEF - F 6eme F 8742
60 PORTES Vivien 04:12:30 V1M - M 16 V1M 8594
61 VOUHe Bruno 04:14:14 SEM - M 36 SEM 8530
62 CHARLET Guillaume 04:14:52 SEM - M 37 SEM 8115
63 HENRY Jerome 04:15:27 SEM - M 38 SEM 8704
64 SOLER Quentin 04:15:42 SEM - M 39 SEM 8602
65 LAZON Ludovic 04:15:54 SEM - M 40 SEM 8685
66 PIRNGRUBER Gerhard 04:17:14 V1M - M 17 V1M 8620
67 VIVIEN Olivier 04:17:26 V1M - M 18 V1M 8058
68 ROUCOULY Arnaud 04:17:56 SEM - M 41 SEM 8978
69 LAMONTAGNE Nicolas 04:17:57 SEM - M 42 SEM 8750
70 NICAUD Julien 04:18:33 SEM - M 43 SEM 8108
71 BODET Marie 04:18:34 SEF - F 7eme F 8944
72 FERREUX Pascal 04:18:35 V2M - M 2 V2M 8250
73 SELLES Denis 04:18:38 SEM - M 44 SEM 8264
74 DULIEU Anthony 04:19:07 SEM TEAM KALENJI M 45 SEM 8023
75 DESPEIGNES Laurent 04:19:51 SEM - M 46 SEM 8373
76 DEPAGNE Olivier 04:20:16 SEM - M 47 SEM 8876
77 MARQUES Amedeo 04:20:23 SEM - M 48 SEM 8809
78 MATHIAN Jean Marie 04:21:26 V2M - M 3 V2M 8986
79 LORANT Pattrice 04:21:28 V1M - M 19 V1M 8969
80 HERBRETEAU Francois 04:21:35 SEM - M 49 SEM 8519
81 BERTRAND Anne 04:21:52 V2F - F 8eme F / 1 V2F 8333
82 HIVERT Pierre Adrien 04:21:58 ESM AMBASSADEUR KALENJI M 3 ESM 8036
83 LEROY Olivier 04:22:32 SEM - M 50 SEM 8071
84 BOURDEN Cedric 04:22:34 SEM - M 51 SEM 8892
85 LEROY Edouard 04:23:25 SEM - M 52 SEM 8922
86 LAINe Olivier 04:23:46 SEM - M 53 SEM 8619
87 DHAYNAUT Antoine 04:24:00 SEM - M 54 SEM 8921
88 ILHARDOY Yann 04:24:37 SEM - M 55 SEM 8136
89 HAMMERLIN Vincent 04:24:38 SEM - M 56 SEM 8911
90 BOTELLA Pascale 04:24:48 V1F - F 9eme F / 1 V1F 8066
91 DOULS Benoit 04:25:01 SEM - M 57 SEM 8540
92 JARNIAS Christophe 04:25:02 V1M - M 20 V1M 8910
93 BRETON Gaetan 04:25:08 SEM TEAM KALENJI M 58 SEM 8017
94 VENDE Serge 04:25:50 V2M - M 4 V2M 8471
95 COME Noe 04:26:19 SEM - M 59 SEM 8059
96 DESSEREY Sebastien 04:26:50 SEM - M 60 SEM 19015
97 CAZES Guillaume 04:26:59 SEM - M 61 SEM 8992
98 COTTIER Romain 04:27:01 SEM - M 62 SEM 8162
99 VIRIN Jean Cyrille 04:27:05 V1M - M 21 V1M 8406
100 WALLETH Sebastien 04:27:06 SEM - M 63 SEM 8793
101 LUME Patrick 04:27:48 V2M - M 5 V2M 8727
102 HIVERT Mathias 04:28:03 SEM - M 64 SEM 8090
103 THOMANN Philippe 04:28:12 V2M - M 6 V2M 8812
104 OUMMAHAN Bashar 04:28:18 SEM - M 65 SEM 8251
105 NORMAND Gautier 04:28:37 SEM - M 66 SEM 8885
106 LAFFARGUE Fabrice 04:28:40 SEM - M 67 SEM 8194
107 DUCHAINE Emmanuelle 04:28:53 SEF - F 10eme F / 8 SEF 8880
108 CHARVILLAT Marc 04:29:49 SEM - M 68 SEM 8390
109 THEUIL Nadia 04:29:53 SEF - F 11eme F / 9 SEF 8829
110 MOUCHARD Herve 04:29:55 V1M - M 22 V1M 8490
111 FOLLAIN Thibaud 04:30:09 SEM - M 69 SEM 8457
112 LE BIHAN Matthieu 04:30:34 SEM - M 70 SEM 19023
113 FAVREL Benoit 04:31:12 SEM - M 71 SEM 8225
114 BURONFOSSE Benoit 04:31:38 SEM TEAM KALENJI M 72 SEM 8020
115 LAUTARD Christophe 04:31:41 SEM - M 73 SEM 8994
116 GRELLETY Nicolas 04:31:43 SEM - M 74 SEM 8575
117 REHEL Yoann 04:31:48 SEM - M 75 SEM 8780
118 MARMOUGET Marc 04:32:45 V1M - M 23 V1M 8904
119 BETEMPS Gilles 04:32:53 V1M - M 24 V1M 8434
120 DEMARS Olivier 04:33:13 SEM - M 76 SEM 8627
121 BRUNET Sebastien 04:33:17 SEM - M 77 SEM 8216
122 PELLETIER Nicolas 04:33:20 V1M TEAM KALENJI M 25 V1M 8004
123 PAPA Christie 04:33:25 SEF - F 12eme F / 10 SEF 8909
124 GONCALVES Cedric 04:33:26 SEM - M 78 SEM 8152
125 RENE Vincent 04:34:13 SEM - M 79 SEM 8314
126 DE CAMPOS Paula 04:34:16 SEF - F 13eme F / 11 SEF 8270
127 WAROUX Samuel 04:34:18 V1M - M 26 V1M 8670
128 PAIROYS Thomas 04:34:20 SEM - M 80 SEM 8387
129 DUVALLET Mickael 04:35:11 SEM - M 81 SEM 8086
130 BATISSON Nicolas 04:35:18 SEM - M 82 SEM 8544
131 VANDEL Ludovic 04:35:34 SEM - M 83 SEM 8787
132 GAMOND Julien 04:35:47 SEM - M 84 SEM 8551
133 TOURNAIRE Mathieu 04:35:49 SEM - M 85 SEM 8246
134 CHASSIGNOLE Julien 04:35:54 SEM - M 86 SEM 8343
135 PAREY Christophe 04:35:57 V1M - M 27 V1M 8112
136 BEAUBIER Benoit 04:36:01 SEM - M 87 SEM 8872
137 CLEDELIN Herve 04:36:18 V1M - M 28 V1M 19025
138 CHEVRIN Pascal 04:36:31 SEM - M 88 SEM 8858
139 COURREGE Marjolaine 04:36:56 SEF - F 14eme F / 12 SEF 8515
140 PICAUVILLE Damien 04:36:58 SEM - M 89 SEM 8691
141 REYNAUD Philippe 04:37:00 SEM - M 90 SEM 8432
142 CARADEC Joel 04:37:44 V2M - M 7 V2M 8967
143 FREDRICSON Peter 04:38:30 V1M - M 29 V1M 8988
144 SALESSE Nicolas 04:38:35 SEM - M 91 SEM 8618
145 FEDELI Patrick 04:38:54 V2M - M 8 V2M 8995
146 NOUIS Cedric 04:39:11 V1M - M 30 V1M 8882
147 MARECHET Morgan 04:39:26 SEM - M 92 SEM 8452
148 MOULINIER Marc 04:39:43 V1M - M 31 V1M 8755
149 MAGNIER Quentin 04:40:19 SEM - M 93 SEM 8696
150 CAILLET Corentin 04:40:34 ESM - M 4 ESM 8468
151 DIF Sarah 04:41:28 SEF - F 15eme F / 13 SEF 8615
152 BERGER Valerie 04:41:31 SEF - F 16eme F / 14 SEF 8431
153 COSTE Habiba 04:41:35 V1F - F 17eme F / 2 V1F 8347
154 SAGRANGE Bernard 04:41:37 V1M - M 32 V1M 8351
155 BERTRAND Didier 04:41:57 V2M - M 9 V2M 8336
156 CAPARROS Thierry 04:41:58 V2M - M 10 V2M 8252
157 ORIOL Mathieu 04:42:01 SEM - M 94 SEM 8751
158 BONNET Benoit 04:42:07 SEM - M 95 SEM 8678
159 CASSIER Nicolas 04:43:24 SEM - M 96 SEM 8078
160 MOREL Fabrice 04:43:50 SEM - M 97 SEM 8168
161 TELLIER Nicolas 04:44:24 V2M - M 11 V2M 8585
162 CAISSE Marie Laure 04:44:25 V1F - F 18eme F / 3 V1F 8260
163 AMSLER Cyrille 04:44:27 SEM - M 98 SEM 8943
164 VIVARES Francois 04:44:28 V1M - M 33 V1M 8524
165 BOUJON Jerome 04:44:29 SEM - M 99 SEM 8738
166 MILLE Alexandre 04:44:31 SEM - M 100 SEM 8623
167 PAPIN Christophe 04:44:33 V1M - M 34 V1M 8808
168 BUISSON Stephanie 04:44:46 SEF - F 19eme F / 15 SEF 8081
169 PELTIER Ugo 04:44:47 V1M - M 35 V1M 8729
170 LACROIX Lucie 04:44:48 SEF TEAM TECNICA F 20eme F / 16 SEF 8049
171 LEVEL Lina 04:44:49 SEF - F 21eme F / 17 SEF 19020
172 MUN Benjamin 04:45:02 SEM - M 101 SEM 8094
173 DELABRE Gregory 04:45:23 V1M - M 36 V1M 8677
174 DUCHAINE Alexandre 04:45:49 SEM - M 102 SEM 8879
175 GREGOIRE Nicolas 04:46:15 SEM - M 103 SEM 8486
176 LARRAT Eric 04:46:46 SEM - M 104 SEM 8416
177 HINGANT Benjamin 04:47:24 SEM - M 105 SEM 8962
178 LABARRE Edouard 04:47:32 SEM - M 106 SEM 8653
178 RABAGLIA Laurent 04:47:32 V1M - M 37 V1M 8888
180 NICOLAS Richard 04:47:35 V1M - M 38 V1M 8247
181 BETRANCOURT Claude 04:47:37 V1M - M 39 V1M 8826
182 LAURENCIN Xavier 04:47:47 SEM - M 107 SEM 8958
183 HUYGHE Laetitia 04:47:51 V1F - F 22eme F / 4 V1F 8284
184 BERTHET PILON Didier 04:48:00 V2M - M 12 V2M 8327
185 CHABIRAND Severine 04:49:04 SEF - F 23eme F / 18 SEF 8217
186 PONTHIEUX Jean Michel 04:49:05 V1M - M 40 V1M 8348
187 BARROIS Stephane 04:49:07 SEM - M 108 SEM 8061
188 SICART Olivier 04:49:08 V1M - M 41 V1M 8681
189 BOCHENEK Jeremy 04:49:09 SEM - M 109 SEM 8837
190 HEISSER Benjaminn 04:49:10 SEM - M 110 SEM 8835
191 LEPAGE DELEURENCE Isabelle 04:50:09 V1F - F 24eme F / 5 V1F 8297
192 CHAMBON Guillaume 04:50:20 SEM - M 111 SEM 8694
192 SOUIL Stephane 04:50:20 V1M - M 42 V1M 8705
194 GIUSTRANTI Bruno 04:51:21 V2M - M 13 V2M 8668
195 MALO Guillaume 04:51:29 SEM - M 113 SEM 8817
195 ALLAIRE Vincent 04:51:29 SEM - M 112 SEM 8601
197 SERMOT Nicolas 04:51:58 SEM TEAM INVITE KALENJI M 114 SEM 8039
198 BAS Michel 04:52:21 V2M - M 14 V2M 8603
199 GENDRON Christophe 04:52:27 V1M - M 43 V1M 8537
200 MOREAU Mickael 04:54:32 SEM - M 115 SEM 8824
201 GILET Romain 04:54:52 SEM - M 116 SEM 8309
202 ROY Corentin 04:54:55 SEM - M 117 SEM 8942
203 CHOUVY Caroline 04:54:56 SEF - F 25eme F / 19 SEF 8792
204 PEYRAT Sebastien 04:55:08 V1M - M 44 V1M 8638
205 DEWAELE Aurelie 04:55:11 SEF - F 26eme F / 20 SEF 8883
206 AUBRIL Samuel 04:55:36 SEM - M 118 SEM 8823
207 TARDITI Philippe 04:55:38 V1M - M 45 V1M 8583
208 LORTAL Franck 04:55:52 V1M - M 46 V1M 8635
209 TARET Frederic 04:55:54 V1M TEAM KALENJI M 47 V1M 8030
209 MOLLe Charles Henri 04:55:54 SEM - M 119 SEM 8516
211 CASARIN Jeremy 04:55:57 SEM - M 120 SEM 8513
212 MOUNEYDIER Celine 04:56:20 SEF - F 27eme F / 21 SEF 8764
213 LORENTZ Magalie 04:56:26 V1F - F 28eme F / 6 V1F 8760
214 FAGES Damien 04:56:31 SEM - M 121 SEM 8998
215 BROQUAIRE Jerome 04:57:04 SEM - M 122 SEM 8158
216 DELUBAC Jean 04:57:08 V2M - M 15 V2M 8676
217 LE GUESCLOU Erwann 04:57:09 SEM - M 123 SEM 8599
218 MOUTON Geoffroy 04:57:10 SEM - M 124 SEM 8107
219 MARIN Sylvie 04:57:16 V1F - F 29eme F / 7 V1F 8319
220 BROSSIAL Mathieu 04:58:05 SEM - M 125 SEM 8632
221 SEMINEL Perrine 04:58:23 SEF - F 30eme F / 22 SEF 8398
222 ANDRE Sebastien 04:58:29 V1M - M 48 V1M 8841
223 NICOLAS Sophie 04:59:03 SEF - F 31eme F / 23 SEF 8248
224 RENAULT Nicolas 04:59:04 SEM - M 126 SEM 8099
224 LAVOIX Patricia 04:59:04 SEF - F 32eme F / 24 SEF 8118
226 BIGNEBAT Pierre 04:59:36 V2M - M 16 V2M 8819
227 JOUY Bruno 04:59:59 V2M - M 17 V2M 8184
228 MILLOT Vincent 05:00:14 SEM - M 127 SEM 8852
229 TAUPIN Romain 05:00:57 SEM - M 128 SEM 8079
230 BONNAL Antoine 05:01:18 SEM - M 129 SEM 8634
231 ROUSSARIE Karine 05:01:39 V1F - F 33eme F / 8 V1F 8772
232 RUINI Pierre 05:01:41 V1M - M 50 V1M 9000
232 AYMARD Romain 05:01:41 V1M - M 49 V1M 8770
234 THEURET Gerard 05:01:51 V1M - M 51 V1M 8197
235 MASSON Philippe 05:02:11 V1M - M 52 V1M 8786
236 EYROLLES Frederic 05:02:20 SEM - M 130 SEM 8330
236 DE AZEVEDO Celine 05:02:20 V2F - F 34eme F / 2 V2F 8460
238 BANCAREL Cedrik 05:02:38 V1M - M 53 V1M 8810
239 DUMAS Amandine 05:02:40 SEF - F 35eme F / 25 SEF 8957
240 YAPOUDJIAN Philippe 05:03:08 V2M - M 18 V2M 8828
241 FORST Jeremy 05:03:18 SEM - M 131 SEM 8955
242 LEFOULON Richard 05:03:25 SEM - M 132 SEM 8289
243 VILLAIN Frederick 05:03:40 V1M - M 54 V1M 8209
244 PELLETIER Cecile 05:04:14 V1F TEAM KALENJI F 36eme F / 9 V1F 8029
245 RACOT Charles 05:05:04 V2M - M 19 V2M 8657
246 CAUSSE Sebastien 05:05:06 V1M - M 55 V1M 8230
247 DUBUISSON Hubert 05:05:19 V1M - M 56 V1M 8754
248 BIAU Romain 05:05:38 SEM - M 133 SEM 8267
249 PAGEAU Claudine 05:05:51 V2F - F 37eme F / 3 V2F 8355
250 LEBLANC Michel 05:05:53 V2M - M 20 V2M 8346
251 LE LAY Pascal 05:06:12 SEM - M 134 SEM 8593
251 BRILLARD Michael 05:06:12 SEM - M 135 SEM 8648
253 CENENT Cedric 05:06:14 SEM - M 136 SEM 8757
253 STEPHAN Denis 05:06:14 V2M - M 21 V2M 8607
255 GALLAIS Laurence 05:06:16 V1F - F 38eme F / 10 V1F 8629
256 MORVAN Mathilde 05:06:23 SEF - F 39eme F / 26 SEF 8915
257 LEROY Arnaud 05:06:24 SEM - M 137 SEM 8914
258 ROUCOU Thibault 05:07:03 SEM - M 138 SEM 8697
259 BAZIN Claire 05:07:08 SEF - F 40eme F / 27 SEF 8614
260 POUSTHOMIS Arnaud 05:07:12 SEM - M 139 SEM 8488
260 DEBARRE Etienne 05:07:12 SEM - M 140 SEM 8912
262 LENOIR Thibaut 05:07:16 SEM - M 141 SEM 8192
263 JOLIVET Laurent 05:08:09 SEM - M 142 SEM 8249
264 ESCUDE VILANOVA Bet 05:08:22 SEF TEAM KALENJI F 28 SEF 8016
264 VIRION Emmanuel 05:08:22 SEM TEAM KALENJI M 143 SEM 8018
266 MARIEL Francois 05:08:34 SEM - M 144 SEM 8613
267 SALMON Matthieu 05:09:02 SEM - M 145 SEM 8930
268 BOSSARD Emmanuel 05:09:03 V1M - M 57 V1M 8412
269 MICHAUD Sophie 05:09:08 V1F - F 11 V1F 8350
270 CADIOU Herve 05:09:09 V1M - M 58 V1M 8815
271 MOINE Olivier 05:09:23 V1M - M 59 V1M 8244
272 POULET Franck 05:09:24 SEM - M 146 SEM 8752
273 DESBROSSES Yves 05:09:26 V3M - M 1 V3M 8732
274 DOUILLET Antoine 05:10:24 SEM - M 147 SEM 8953
275 BOUSQUET Alexis 05:10:41 SEM - M 148 SEM 8313
276 BARBET Jean Charles 05:10:44 V1M - M 60 V1M 8208
277 CAMBOS Augustin 05:10:56 ESM - M 5 ESM 8161
278 BADANA Jose 05:11:31 V2M - M 22 V2M 8725
279 CATTEAU Jeremie 05:11:33 SEM TEAM INVITE KALENJI M 149 SEM 8040
280 LEFEBVRE Caroline 05:11:34 V1F - F 12 V1F 8723
280 VEYSSIERE Sophie 05:11:34 SEF - F 29 SEF 8724
282 DONADILLE Laurent 05:12:03 V1M - M 61 V1M 8894
283 PERIE Joris 05:12:09 SEM - M 150 SEM 8322
284 PESNEL Charles 05:12:13 SEM - M 151 SEM 8320
285 HUMBERT Sylvain 05:12:26 SEM - M 152 SEM 8179
286 CONDIS Sebastien 05:12:29 SEM - M 153 SEM 8846
287 LAPORTE Daniel 05:12:30 V2M - M 23 V2M 8707
288 JOUBREL Gwenaele 05:12:38 V1F - F 13 V1F 8990
289 RAYSSAC Corinne 05:12:40 V1F - F 14 V1F 8533
290 COURSIN Arnaud 05:12:42 SEM - M 154 SEM 8281
291 BOUTERAON Michel 05:12:44 V2M - M 24 V2M 8886
292 BAUDET Frederic 05:12:51 V1M - M 62 V1M 8299
293 LARREUR Marc 05:12:52 SEM - M 155 SEM 8300
294 LE MEUR Benoit 05:12:53 V1M - M 63 V1M 8290
295 LEJEUNE Cecile 05:13:31 SEF TEAM ST YORRE F 30 SEF 19003
296 UNWIN Tim 05:13:59 V1M - M 64 V1M 8654
297 LIBOUREL Guillaume 05:14:04 SEM - M 156 SEM 8470
298 BOUTEILLER Aurelie 05:14:25 SEF - F 31 SEF 8215
299 FABRIES Clement 05:15:14 SEM TEAM KALENJI M 157 SEM 8026
300 CARADEC Paul 05:15:36 SEM - M 158 SEM 8935
301 CHIESURA Samuel 05:15:38 V1M - M 65 V1M 8298
302 MAGUEUR Jean Paul 05:15:40 V1M - M 66 V1M 8430
303 POSSAMAI Lionel 05:15:49 SEM - M 159 SEM 8263
304 MEILLAN Marie Pierre 05:15:53 SEF - F 32 SEF 8775
305 LEMIRE Johann 05:16:11 SEM - M 160 SEM 8577
306 LOUVEL Oswald 05:16:19 SEM - M 161 SEM 8573
307 CASTALDI Olivier 05:16:23 V1M TEAM KALENJI M 67 V1M 8031
307 CARTEAU Isabelle 05:16:23 V1F - F 15 V1F 8642
309 SANCHEZ Francois 05:16:26 SEM - M 162 SEM 8366
310 COUVREUR David 05:16:46 SEM - M 163 SEM 8279
311 PETITPAS Jean Paul 05:16:49 V1M - M 68 V1M 8308
312 CROCHU Sebastien 05:16:53 SEM - M 164 SEM 8484
313 BALARD Julien 05:17:01 V1M - M 69 V1M 8505
314 DELAS Helene 05:17:04 SEF - F 33 SEF 8467
315 JOBARD Maxime 05:17:11 SEM - M 165 SEM 8325
315 LAFOLIE Laurent 05:17:11 V2M - M 25 V2M 8860
317 MAGNIER Arnaud 05:17:23 V1M - M 70 V1M 8794
318 DRIANT Pascal 05:17:28 V2M - M 26 V2M 8445
319 CHALMANDRIER Julien 05:17:43 SEM - M 166 SEM 8323
320 RABINEAU Benjamin 05:17:44 SEM - M 167 SEM 8782
321 FONTANE Laurent 05:17:51 V1M - M 72 V1M 8806
321 COMBES Fabrice 05:17:51 V1M - M 71 V1M 8756
321 TEISSONNIERE Jean Denis 05:17:51 V2M - M 27 V2M 8753
321 LATEYRON Chrystele 05:17:51 SEF - F 34 SEF 8512
325 BELLAY Bruno 05:17:52 V2M - M 28 V2M 8845
326 MOLEUX Mei Chu 05:17:55 V1F - F 16 V1F 8324
327 DUFOUR Laurent 05:18:02 V1M - M 73 V1M 8574
328 PETIT Florent 05:18:13 SEM - M 168 SEM 8600
329 DEL CORSO Frederic 05:18:29 SEM - M 169 SEM 8241
330 BIHORE Mathieu 05:18:49 SEM - M 170 SEM 8144
331 TINGRY Alexandre 05:19:10 V1M - M 74 V1M 19012
332 LAGUET Flavie 05:19:17 ESF - F 1 ESF 8887
332 PICHARD Delphine 05:19:17 SEF AMBASSADEUR KALENJI F 35 SEF 19027
334 BREUIL Olivier 05:19:28 SEM - M 171 SEM 8889
335 ROUX Raphael 05:19:39 V1M - M 75 V1M 8311
336 LAGNIEL Erick 05:19:41 V2M - M 29 V2M 8461
337 BEBIN Sophie 05:19:47 SEF TEAM KALENJI F 36 SEF 8014
338 MANCEL Adeline 05:19:54 SEF - F 37 SEF 8566
338 DESPLANCHES Thomas 05:19:54 SEM - M 172 SEM 8568
340 COUDERT Maxime 05:19:58 SEM - M 173 SEM 8341
341 SOUQUIERES Philippe 05:20:05 V2M - M 30 V2M 8083
342 LAVOIX Patrice 05:20:06 V3M - M 2 V3M 8617
343 DUVAL Matthieu 05:20:08 SEM - M 174 SEM 8965
344 VARIOT Jonathan 05:20:17 SEM - M 175 SEM 8186
345 VACHERON Stephanie 05:20:29 V1F - F 17 V1F 8525
346 GROUSSET Steve 05:20:44 SEM - M 176 SEM 8870
347 BROUAT Sebastien 05:20:49 V1M - M 76 V1M 8700
348 TILLY Ronan 05:20:50 SEM - M 177 SEM 8881
349 PELLETIER Bertrand 05:20:56 V1M - M 77 V1M 8063
350 LAURENT Marion 05:21:04 SEF - F 38 SEF 8938
351 RIDEAU Florian 05:21:43 SEM - M 178 SEM 8699
352 LAMMENS Dominique 05:21:45 V3M - M 3 V3M 8243
353 FOTINAR Arnaud 05:22:41 V1M - M 78 V1M 8590
354 SOULAS Eric 05:22:42 V1M - M 79 V1M 8447
355 AUBA Daniel 05:22:49 V1M - M 80 V1M 8959
355 JOURDA Alexiane 05:22:49 SEF - F 39 SEF 8581
357 GOURCEROL Frederic 05:23:02 V1M - M 81 V1M 19009
358 NADAUD Jerome 05:23:03 V1M - M 82 V1M 8875
359 MAZIERE Julien 05:23:23 SEM - M 179 SEM 8891
360 AUTHIER David 05:23:24 SEM - M 180 SEM 8863
361 LEGER Francois 05:23:33 V1M - M 83 V1M 8871
362 CAZENAVE Florent 05:23:38 SEM - M 181 SEM 19018
363 QUINETTE Julie 05:23:48 SEF - F 40 SEF 8231
364 ROSE Amelie 05:24:00 SEF - F 41 SEF 8536
365 PERRIN Cyril 05:24:18 V1M TEAM KALENJI M 84 V1M 8006
366 HENNETIER Pierre 05:24:26 SEM - M 182 SEM 8424
367 AUBREE Othello 05:24:28 V1M - M 85 V1M 8233
367 BENGLOAN Thierry 05:24:28 V2M - M 31 V2M 8692
369 LINTZ Delphine 05:24:46 V1F - F 18 V1F 8688
370 GAUDUCHON Xavier 05:25:04 V1M - M 86 V1M 8932
371 TESSERON Cyril 05:25:06 SEM - M 183 SEM 8479
372 CRETIN Herve 05:25:12 SEM - M 184 SEM 8257
372 CARRADORE Anthony 05:25:12 SEM - M 185 SEM 8384
372 COUBRUN Ronan 05:25:12 SEM - M 186 SEM 8964
375 ROUGE Benoit 05:25:52 SEM - M 187 SEM 8391
376 POILANE Gregory 05:26:19 SEM - M 188 SEM 8253
377 MONNIER Frederic 05:26:32 SEM - M 189 SEM 8411
378 LE PORT Regis 05:26:39 SEM - M 190 SEM 8554
378 LADAN Yvon 05:26:39 SEM - M 191 SEM 8589
380 FONTENEAU Jerome 05:27:05 V1M - M 87 V1M 8442
381 FARRE Xavier 05:27:28 SEM - M 192 SEM 8321
382 ANGO Stephane 05:27:33 SEM - M 194 SEM 8739
382 BOURGEON Jean Baptiste 05:27:33 SEM - M 193 SEM 8661
384 GUCHET Pascal 05:27:34 V2M - M 32 V2M 8973
385 SZYMANIAK Nicolas 05:27:35 SEM - M 195 SEM 8474
386 MACAUX Serge 05:27:37 V2M - M 33 V2M 8478
386 WILLOCQ Damien 05:27:37 SEM - M 196 SEM 8731
388 DOS SANTOS CARDOSO Jerome 05:27:54 SEM - M 197 SEM 8518
389 DE LAURENT Pierre 05:27:55 V1M - M 88 V1M 8647
390 MOREL Estelle 05:28:07 SEF - F 42 SEF 8937
391 DINECHIN Eric 05:28:10 V1M - M 89 V1M 8609
392 BIGOT Francois 05:28:12 V2M - M 34 V2M 8443
393 HURTAUD Freddy 05:28:13 V1M - M 90 V1M 19022
394 RIQUIER Olivier 05:28:14 V1M TEAM KALENJI M 91 V1M 8032
395 VOLPI Gregory 05:28:15 SEM AMBASSADEUR KALENJI M 198 SEM 8037
396 ROUSSIOT Jerome 05:28:48 SEM - M 199 SEM 8293
397 LORRIN Cyril 05:29:44 V1M - M 92 V1M 8318
398 SOUQUIERES Jean Francois 05:30:00 V2M - M 35 V2M 8085
399 THIERY Francois 05:30:50 V2M - M 36 V2M 8148
400 DUPAIN Herve 05:30:52 V2M - M 37 V2M 8277
401 LIENARD Eric 05:31:20 V2M - M 38 V2M 8658
402 TUQUET Eric 05:31:26 V1M - M 93 V1M 8507
403 ROUSSEAU Yvonne 05:31:48 V1F - F 19 V1F 8110
404 CANTALOUBE Christophe 05:32:48 V1M - M 94 V1M 8890
405 LEBARBIER Sylvain 05:33:18 SEM - M 200 SEM 8963
406 VENZAL Sebastien 05:33:24 SEM - M 201 SEM 8785
407 BLANCHARD Sebastien 05:34:02 SEM - M 202 SEM 8905
407 VeRICEL Franck 05:34:02 V1M - M 95 V1M 8901
409 PITAVAL Gaetan 05:34:20 V1M TEAM KALENJI M 96 V1M 8033
409 COLAS Benjamin 05:34:20 SEM - M 203 SEM 8867
411 GONTHIER Herve 05:34:25 V1M - M 97 V1M 8240
412 EMBERGER Nicolas 05:34:26 SEM - M 204 SEM 8239
413 DINECHIN Alban 05:34:28 SEM - M 205 SEM 8608
414 TESSIER Mickael 05:35:16 SEM - M 206 SEM 8292
414 CHANE PINE Christophe 05:35:16 SEM - M 207 SEM 8834
416 MIROUZE David 05:35:47 SEM - M 208 SEM 8843
417 POMME Alain 05:35:59 V1M - M 98 V1M 8960
418 MAYSOUNAVE Olivier 05:36:13 SEM - M 209 SEM 8121
419 MASSONNAUD Francois 05:36:20 SEM - M 210 SEM 8245
420 WENDLINGER Laurent 05:36:23 V2M - M 39 V2M 8616
421 PREVOST Christophe 05:36:56 V1M - M 99 V1M 8057
422 BERTOCCHIO Joel 05:36:58 V2M - M 40 V2M 8580
423 DUREY Benedicte 05:37:00 SEF - F 43 SEF 8235
424 FALGAYRAT Francois 05:37:03 V1M - M 100 V1M 8950
425 PORTAIL Xavier 05:37:05 SEM - M 211 SEM 8393
426 ROCHER Jerome 05:37:07 SEM - M 212 SEM 8295
427 POITEL Damien 05:37:22 SEM - M 213 SEM 8972
428 BRIANT Jacques 05:37:32 SEM - M 214 SEM 8483
428 OCAFRAIN Christian 05:37:32 V1M - M 101 V1M 8993
430 GODEFROY Romain 05:37:42 V1M - M 102 V1M 8762
431 HAUMON Mathieu 05:37:44 SEM - M 215 SEM 8767
432 REMOND Sylvain 05:37:45 SEM - M 216 SEM 8354
433 ORAIN Pierre Yves 05:37:56 V2M - M 41 V2M 8693
434 RANG Caroline 05:37:58 V1F - F 20 V1F 8288
435 TURPIN Mickael 05:38:00 SEM - M 217 SEM 8340
436 BLANDIN Stephanie 05:38:03 SEF - F 44 SEF 8850
437 DAVID Jean Marie 05:38:05 SEM - M 218 SEM 8143
438 CLAVERIE CAZASSUS Marie Christine 05:38:10 V1F - F 21 V1F 8511
439 JULIEN Nicolas 05:38:18 V1M - M 103 V1M 8372
440 LAMOTTE Laure 05:38:25 V1F - F 22 V1F 8171
441 OUILLON Christian 05:38:27 SEM - M 219 SEM 8265
442 GANDON Christian 05:38:35 V2M - M 42 V2M 8682
443 LHOTE Mickael 05:39:40 V1M - M 104 V1M 8552
444 GRUVIER Alain 05:39:52 V1M - M 105 V1M 8939
445 VIALON Louis 05:40:21 V2M - M 43 V2M 8444
446 BOUFFIES Christophe 05:40:42 V1M - M 106 V1M 8708
447 DUBOC Christian 05:40:43 V1M - M 107 V1M 8711
448 PACHULSKI Gaelle 05:40:44 V1F - F 23 V1F 8472
448 MOREAU Philippe 05:40:44 V2M - M 44 V2M 8473
450 TURQUAND Vanessa 05:40:49 V1F - F 24 V1F 8407
451 LANNEMAJOU Eric 05:40:50 SEM - M 220 SEM 8586
452 QUINTIN Pascal 05:40:59 V2M - M 45 V2M 8781
453 DUBOS Jean Serge 05:41:00 V3M - M 4 V3M 8455
454 DASQUE Julien 05:41:14 SEM - M 221 SEM 8096
455 ROUZAUD Olivier 05:41:18 SEM - M 222 SEM 8734
455 JAMME DE LAGOUTINE Bertrand 05:41:18 V1M - M 108 V1M 8740
457 GROSPERRIN Guillaume 05:41:19 SEM - M 223 SEM 8338
458 BENEZET Jerome 05:41:20 SEM - M 224 SEM 8744
459 MANSON Gregoire 05:41:52 V1M - M 109 V1M 8448
460 SALMON Etienne 05:42:05 V1M - M 110 V1M 8931
461 GUILLEMENT Kevyn 05:42:40 SEM - M 225 SEM 19004
462 PALLANCHER Mathieu 05:44:14 V1M - M 111 V1M 8389
463 BLANDIN Laurent 05:44:21 SEM - M 226 SEM 8849
464 LARCHEVEQUE Romuald 05:44:53 SEM - M 227 SEM 8588
464 SOUVIGNET Roland 05:44:53 V3M - M 5 V3M 8422
466 VERGNIERES Maxime 05:45:05 SEM - M 228 SEM 8538
467 BEAUFRETON Christian 05:45:13 V1M - M 112 V1M 8838
468 BRELIVET Steven 05:45:34 SEM - M 229 SEM 8541
469 ROBERT Valerie 05:45:40 V2F - F 4 V2F 8674
470 GIANDOLINI Marlene 05:45:42 SEF - F 45 SEF 8517
471 LACHIA Francine 05:46:08 V2F - F 5 V2F 8175
472 COTTENCIN Jean Pierre 05:46:11 V1M - M 113 V1M 8802
472 DUTIL Aurelien 05:46:11 SEM - F 230 SEM 8803
474 BARTHOLLET Philippe 05:46:19 V1M - M 114 V1M 8365
474 POULET Eric 05:46:19 V1M - M 115 V1M 8375
476 TREMOUILLES Salima 05:46:21 SEF - F 47 SEF 19013
476 DARNAND Emilie 05:46:21 SEF - F 46 SEF 8709
478 LE LEZ Loic 05:46:22 SEM - M 231 SEM 8807
479 MOREAU Nathalie 05:46:28 V1F - F 25 V1F 8671
480 EDY Christelle 05:46:38 V1F - F 26 V1F 8683
481 TEPPE Viviane 05:46:41 V2F - F 6 V2F 8975
482 ZAFFARONI Julien 05:46:44 SEM - M 232 SEM 8961
483 MORELLATO Michel 05:46:52 V1M - M 116 V1M 8315
484 DELMAS Flora 05:47:10 SEF - F 48 SEF 8091
485 LARROCHE Gilles 05:47:12 SEM - M 233 SEM 8224
486 GUIOT Patrice 05:47:23 V1M - M 117 V1M 8421
487 GARABUAU Romain 05:47:31 SEM - M 234 SEM 19016
488 DUPRADEAU Sandrine 05:47:51 SEF - F 49 SEF 8157
489 DESCHAMP Edouard 05:47:54 V1M - M 118 V1M 8926
489 CRATTELET Jonathan 05:47:54 SEM - M 235 SEM 8283
491 CAZALI Laurent 05:48:03 SEM - M 236 SEM 8462
492 LAVANDIER Sebastien 05:48:09 V1M - M 119 V1M 8906
493 BOUTEAU David 05:49:01 V1M - M 120 V1M 8621
494 LAMBERT Xavier 05:49:10 V1M - M 121 V1M 8717
495 DAUVOIS Hugault 05:49:18 SEM - M 237 SEM 8077
496 CORDUAN Sophie 05:49:35 SEF - F 50 SEF 8774
497 COUDRILLIER Vincent 05:49:50 V1M - M 122 V1M 8791
498 SUDRES Sebastien 05:49:57 SEM - M 238 SEM 8189
499 COMBES Cedric 05:50:00 SEM - M 239 SEM 8463
500 DELVAL Jerome 05:50:01 SEM - M 240 SEM 8624
501 TUFFAL Jean Gerard 05:50:04 V1M - M 123 V1M 8101
502 DULAC Gina 05:50:08 V1M - M 124 V1M 8214
503 BAUDON Claude 05:50:10 V3M - M 6 V3M 8352
504 CIRACQ Jean Loup 05:50:14 SEM - M 241 SEM 8701
505 JOLLY Frederic 05:50:18 SEM - M 242 SEM 8531
506 HERBRETEAU Simon 05:50:24 SEM - M 243 SEM 8521
507 PERON Laurent 05:50:33 V1M - M 125 V1M 8222
508 TIVERRIER Ludovic 05:50:44 V2M - M 46 V2M 8187
509 TEISSIER Christian 05:51:12 V1M - M 126 V1M 8679
510 CHAUVET Vincent 05:51:16 V1M - M 127 V1M 8261
511 ETALON Celine 05:51:37 SEF - F 51 SEF 8098
512 GUILLOU Alexis 05:51:58 SEM - M 244 SEM 8836
513 GONTHIER Jerome 05:52:02 V1M - M 128 V1M 8204
514 REYDELLET Olivier 05:52:03 V1M - M 131 V1M 8825
514 DUVAL Eric 05:52:03 V1M - M 130 V1M 8234
514 VUILLERMET Sebastien 05:52:03 V1M - M 129 V1M 8228
517 LACAN Yoann 05:52:12 SEM - M 245 SEM 8087
517 REYNAUD Christophe 05:52:12 V1M - M 132 V1M 8907
519 GUIBERT Frederic 05:52:16 SEM - M 246 SEM 8578
520 PACCEU Stephane 05:52:31 V1M - M 133 V1M 8592
521 NOGUES Julien 05:52:32 SEM - M 247 SEM 8092
522 MURUGESU Vageesan 05:52:46 SEM - M 248 SEM 8735
523 LABAT Guillaume 05:53:00 V1M - M 134 V1M 8579
524 EMERY Philippe 05:53:25 V2M - M 47 V2M 8761
525 GUAQUERE Emeric 05:53:55 SEM - M 249 SEM 8088
526 ROCHETA Patrick 05:55:09 V2M - M 48 V2M 8839
527 HADJOUTI Smain 05:55:35 V1M - M 135 V1M 8605
528 GENIN Jean Luc 05:56:23 V2M - M 49 V2M 8833
528 BALLET BASSINET Annie 05:56:23 V2F - F 7 V2F 8832
530 NGUYEN Khoa Viet 05:57:52 SEM - M 250 SEM 8667
531 BARRAUD Christine 05:58:20 V1F - F 27 V1F 8663
532 DELAIRE GUSTAVE MAYER Christian 05:58:35 SEM - M 251 SEM 8628
533 LALANNE Jean Baptiste 05:58:36 V1M - M 136 V1M 8631
533 SAINT AUBIN Sebastien 05:58:36 SEM - M 252 SEM 8896
535 MIKALEF Xavier 05:58:39 SEM - M 254 SEM 8900
535 COURAU Francois 05:58:39 SEM - M 253 SEM 8897
535 PONCELET Pascal 05:58:39 V2M - M 50 V2M 8139
538 PAPIN Yohan 05:58:43 V1M - M 137 V1M 8665
539 PREAU Laetitia 05:58:44 V1F - F 28 V1F 8664
540 VARIOT Bernard 05:58:56 V3M - M 7 V3M 8191
541 DABIN Virginie 05:58:59 SEF - F 52 SEF 8485
542 BEAUCHET Nathalie 05:59:03 V1F - F 29 V1F 8851
543 BRUNEL Nicolas 05:59:30 SEM - M 255 SEM 8402
544 COTTIN Xavier 05:59:34 V1M - M 138 V1M 8874
545 LE VIOL Michel 05:59:35 V1M - M 139 V1M 8258
545 BERGER Thomas 05:59:35 SEM - M 256 SEM 8854
547 GOMEZ Mario 05:59:41 V1M - M 140 V1M 19019
548 TUQUET Muriel 06:00:20 V1F - F 30 V1F 8508
549 DA SILVA Lydie 06:00:21 V1F - F 31 V1F 8509
550 ROCHETA France 06:00:23 V3F - F 1 V3F 8840
551 CHUPEAU Stephanie 06:00:32 SEF - F 53 SEF 8227
552 GHESQUIERE Sandrine 06:00:45 V1F - F 32 V1F 8380
553 CABE Maite 06:00:55 V1F - F 33 V1F 8502
553 BAGIEU Joel 06:00:55 V2M - M 51 V2M 8495
555 LATRASSE Francois 06:01:04 SEM - M 257 SEM 8902
556 STACHOWSKI Anne 06:01:09 V1F - F 34 V1F 8419
557 PROVOST Laurent 06:01:20 V1M - M 141 V1M 8695
557 COGNAC Stephane 06:01:20 V1M - M 142 V1M 8743
559 IFFLAND Magali 06:01:35 SEF - F 54 SEF 8686
560 D'ANTUONO Philippe 06:01:42 SEM - M 258 SEM 8759
561 GAUTHRIN Maria 06:01:57 V1F - F 35 V1F 8328
562 GONZALEZ Jose Luis 06:02:05 V1M - M 143 V1M 8169
563 HARNOIS Romain 06:02:07 SEM - M 259 SEM 8095
564 LEBOEUF Adrien 06:03:08 SEM - M 260 SEM 19010
565 DA COSTA OLIVEIRA Carlos 06:03:25 V1M - M 144 V1M 8275
566 CHAMAILLARD Laurent 06:03:31 V2M - M 52 V2M 8379
567 ROELSTRATE Laurent 06:03:42 V1M - M 145 V1M 8672
568 BENOIST Romain 06:03:48 SEM - M 261 SEM 8779
569 LECOMPTE Francois Xavier 06:03:50 SEM - M 262 SEM 8458
569 FAUCHARD Julien 06:03:50 SEM - M 263 SEM 8491
569 MASSe Bruno 06:03:50 SEM - M 264 SEM 8844
572 BRULAIS Florence 06:03:51 V1F - F 36 V1F 8656
572 GARZITTO Gregory 06:03:51 V1M - M 146 V1M 8659
574 COADOU Erwan 06:03:52 SEM - M 265 SEM 8758
574 JOLLY Manon 06:03:52 SEF - F 55 SEF 8334
576 RIDEL Sophie 06:04:02 V1F - F 37 V1F 8898
577 POULENARD Delphine 06:04:12 SEF - F 56 SEF 8376
577 BOURGET Denis 06:04:12 V3M - M 8 V3M 8385
579 LAFLEUR Marie 06:04:13 SEF - F 57 SEF 8572
579 COURTEIX Richard 06:04:13 V2M - M 53 V2M 8377
581 ROQUES William 06:04:14 V1M TEAM DECATHLON M 147 V1M 8041
582 GAILLOT Vincent 06:04:22 SEM - M 266 SEM 8141
583 CHRETIEN Anita 06:04:51 V1F - F 38 V1F 8630
584 VERGELY Arnaud 06:04:54 SEM - M 267 SEM 8799
585 HOFFMANN Yves 06:05:02 V1M - M 148 V1M 8367
586 GODET Etienne 06:05:39 SEM - M 268 SEM 8929
587 GRUESO Luis 06:05:43 SEM - M 269 SEM 8706
588 RAUSCH Serge 06:05:48 V2M - M 54 V2M 8172
589 WILQUIN Thierry 06:06:08 V1M - M 149 V1M 8877
590 VANRENTERGHEM Eric 06:06:10 V2M - M 55 V2M 8831
591 LEPRETTRE Boris 06:06:23 SEM - M 270 SEM 8097
592 DUBAR Gregory 06:06:25 SEM - M 271 SEM 8974
593 POUSSIN Christophe 06:07:52 V1M - M 150 V1M 8129
594 TOUSSAINT Muriel 06:08:05 V1F - F 39 V1F 8174
595 MAGUEUR Christelle 06:08:08 V1F - F 40 V1F 8394
596 MAACHE Jean Louis 06:08:09 V2M - M 56 V2M 8476
597 MUZELLEC Christine 06:08:10 V2F - F 8 V2F 8475
598 KRONENTAL Thomas 06:08:13 SEM - M 272 SEM 8716
599 KRONENTAL Klervie 06:08:15 SEF - F 58 SEF 8954
600 FERREIRA Frederique 06:08:20 SEF - F 59 SEF 8294
601 BRISA Eric 06:08:28 V1M - M 151 V1M 8206
602 BARON William 06:08:30 SEM - M 273 SEM 8345
603 MOURIER Georges 06:09:04 V2M - M 57 V2M 8439
604 VILLEMAGNE Louise 06:09:05 SEF - F 60 SEF 8522
605 BRAZIER Aymeric 06:09:06 SEM - M 274 SEM 8549
605 BRAZIER Olivier 06:09:06 V1M - M 152 V1M 8547
607 VOLLET Julien 06:10:10 SEM AMBASSADEUR KALENJI M 275 SEM 8038
607 PRUNET Denis 06:10:10 V2M - M 58 V2M 8970
609 TABOURET Alexandre 06:10:18 SEM TEAM KALENJI M 276 SEM 8019
610 LABOUSSOLE Olivier 06:10:19 V1M TEAM KALENJI M 153 V1M 8005
611 HOAREAU David 06:10:45 SEM - M 277 SEM 8117
612 LARDIERE Philippe 06:10:47 V2M - M 60 V2M 8259
612 VIAUX Jacques 06:10:47 V1M - M 154 V1M 8170
612 STALTER Eric 06:10:47 V2M - M 59 V2M 8164
615 SUDRON Cyrille 06:10:52 SEM - M 278 SEM 8532
616 BACHELET Adrien 06:11:00 SEM - M 279 SEM 8903
617 DU MESNIL ADELEE Marc 06:11:04 V3M - M 9 V3M 8715
617 CALLE Christophe 06:11:04 V2M - M 61 V2M 8426
617 AUDEBAULT Vincent 06:11:04 V1M - M 155 V1M 8363
620 FERNANDES Elsa 06:11:19 V1F - F 41 V1F 8940
621 TERRAIL Valerie 06:11:31 V1F - F 42 V1F 8510
622 BOUSQUET Laetitia 06:11:38 V1F - F 43 V1F 8466
623 LANGLOIS Charlotte 06:11:40 SEF - F 61 SEF 8358
624 RENOUX Jeremy 06:11:43 SEM - M 280 SEM 8855
625 MOUTON Emmanuel 06:11:50 SEM - M 281 SEM 8564
626 AUBER LARDANS Sandrine 06:11:52 V1F - F 44 V1F 8428
627 TALPAERT Anthony 06:12:08 SEM TEAM KALENJI M 282 SEM 8034
628 LEMAIRE Thomas 06:12:09 SEM - M 283 SEM 8429
628 DERRE Franck 06:12:09 V1M - M 156 V1M 8748
628 DERRE Marie Pierre 06:12:09 V2F - F 9 V2F 8749
631 AUGUIN David 06:12:11 V1M - M 157 V1M 8576
632 MOUNEYDIER Remi 06:12:15 SEM - M 284 SEM 8763
633 BOSCH Catherine 06:12:17 V1F - F 45 V1F 8137
633 GALTIER Patrice 06:12:17 V1M - M 158 V1M 8745
635 LE ROY Arnaud 06:12:18 V1M - M 159 V1M 8543
636 ROBERT Nadia 06:12:27 SEF - F 62 SEF 8404
637 CAJAT Vincent 06:12:57 V1M - M 160 V1M 8124
638 MARTINACHE Olivier 06:13:11 V1M - M 161 V1M 8556
639 DELFORGE Albert 06:13:12 V2M - M 62 V2M 8548
640 BUREAU Beatrice 06:13:13 V1F - F 46 V1F 8945
641 CHAMBARLHAC Virginie 06:13:56 V1F - F 47 V1F 8499
642 VIAL Kevin 06:14:16 SEM - M 285 SEM 8278
643 DALLASTA Jean Louis 06:15:07 V2M - M 63 V2M 8183
644 ROUCOU Jeremy 06:15:13 SEM - M 286 SEM 8703
645 LEDUC Lenaig 06:16:08 V1F - F 48 V1F 8721
646 GARABUAU Christophe 06:16:27 SEM - M 287 SEM 19017
647 BIOTEAU Mylene 06:17:02 SEF - F 63 SEF 8312
647 LEGENT Dimitri 06:17:02 SEM - M 288 SEM 8353
649 CHEVALIER Francois 06:17:03 SEM - M 289 SEM 8374
650 DESROCHES Laetitia 06:17:11 SEF - F 64 SEF 8413
651 GOSSE Sophie 06:17:21 SEF - F 65 SEF 8337
652 ROCARD Carole 06:17:22 V1F - F 49 V1F 8804
653 DELON Jerome 06:17:28 V1M - M 162 V1M 8410
654 DURAND Jerome 06:17:59 V1M - M 163 V1M 8188
655 LEVARD Christophe 06:18:08 V1M - M 164 V1M 8801
656 GENOT Nicolas 06:18:16 SEM TEAM KALENJI M 290 SEM 8025
657 ESPIE Eric 06:18:25 V2M - M 64 V2M 8698
658 CAUQUIL Pierre Loic 06:18:32 SEM - M 291 SEM 8822
659 DABANCENS Francis 06:18:39 V2M - M 65 V2M 8669
660 GUILLAUME Sebastien 06:18:54 V1M - M 165 V1M 8126
661 CANTOURNET Benoit 06:19:39 V1M - M 166 V1M 8713
661 DAUVEL Fabrice 06:19:39 V1M - M 167 V1M 8714
663 DUPOUY Remy 06:20:04 SEM - M 292 SEM 8928
664 BREANT Herve 06:20:14 V1M - M 168 V1M 8408
664 LE MADEC Gilbert Joel 06:20:14 V3M - M 10 V3M 8401
666 LANDAIS Jeremy 06:20:38 SEM - M 293 SEM 8983
667 MUESPACH Maxime 06:20:41 SEM - M 294 SEM 8399
668 OLIVERES Sophie 06:20:58 V1F - F 50 V1F 8773
669 LALLEMAND Marc 06:21:22 V2M - M 66 V2M 8427
670 JEANNE Laurent 06:21:41 V1M - M 169 V1M 8465
671 FERNANDEZ David 06:21:55 SEM - M 295 SEM 8595
672 GIGANT Stephanie 06:22:07 SEF - F 66 SEF 8520
673 BOUYER Jonathan 06:22:19 SEM - M 296 SEM 8557
674 JASO Stephane 06:22:20 V1M - M 170 V1M 8604
675 LEMOINE LEPARE Herve 06:22:54 V1M - M 171 V1M 8684
676 LEFEVRE Yoann 06:23:21 SEM - M 297 SEM 8435
676 DELOBRE Fanny 06:23:21 SEF - F 67 SEF 8438
678 BOISSIERE Veronique 06:23:26 V2F - F 10 V2F 8569
679 BLANCHARD Edmond 06:23:40 V1M - M 172 V1M 8690
680 CHAZEL Ludovic 06:23:41 V1M - M 173 V1M 8100
681 PIOT Christophe 06:24:04 V2M - M 67 V2M 8132
682 GABORIEAU Anthony 06:24:23 V1M - M 174 V1M 8611
683 GAUTHIER Clotilde 06:24:24 V1F - F 51 V1F 8612
684 COUVREUR Christian 06:24:50 V2M - M 68 V2M 8342
685 GUIONIE Francois 06:24:58 SEM - M 298 SEM 8730
686 DESMARES Margareth 06:25:32 V1F - F 52 V1F 8591
687 LASSERE Pascale 06:25:41 V2F - F 11 V2F 8392
688 VANDERMEERSCH Franck Charles 06:25:43 SEM - M 299 SEM 8649
689 COLOMBET Nicolas 06:25:48 SEM - M 300 SEM 8418
690 MOUTENET Philippe 06:25:57 V2M - M 69 V2M 8788
691 MARTIN Franck 06:26:53 V2M - M 70 V2M 8625
692 MASSUYES Nicolas 06:27:09 SEM - M 301 SEM 8784
693 LERRIGO MYRIAM 06:27:19 V1F - F 53 V1F 8534
694 DUJAY Alain 06:27:24 V3M - M 11 V3M 8068
695 JACQUET Patrick 06:28:13 SEM - M 302 SEM 8925
696 MENDES Patrick 06:28:21 V1M - M 175 V1M 8220
697 FLAIG Beatrice 06:28:35 SEF - F 68 SEF 8400
698 BEAUMELOU Virginie 06:29:36 SEF - F 69 SEF 8864
698 BARTHE Virginie 06:29:36 SEF - F 70 SEF 8865
698 DE POOTER Ambre 06:29:36 SEF - F 71 SEF 8991
701 BELLA Jeremy 06:31:00 SEM - M 303 SEM 8378
702 MAREAU Gerard 06:31:14 V3M - M 12 V3M 8269
703 DREYER Marlene 06:31:34 V2F - F 12 V2F 8285
704 MACe Ghislain 06:31:39 SEM - M 304 SEM 8205
705 CARBONNEL RYCKEBOER Anne 06:31:43 V1F - F 54 V1F 8332
706 DELAUNEY Fabrice 06:31:53 V2M - M 71 V2M 8795
707 BEQUIN Isabelle 06:32:28 V1F - F 55 V1F 8131
708 ASLAHE Isabelle 06:32:52 V1F - F 56 V1F 8555
709 TEISSIER Hayat 06:33:00 SEF - F 72 SEF 8626
710 FALLIEX Denis 06:33:11 V2M - M 72 V2M 8777
711 GHESQUIERE Frederic 06:33:29 V1M - M 176 V1M 8381
712 FONTENEAU Thierry 06:33:41 V2M - M 73 V2M 8440
713 NGUYEN Tru La 06:34:34 SEF - F 73 SEF 8859
714 ABELLI Louis 06:35:04 V1M - M 177 V1M 8666
715 FORMONT Sarah 06:36:05 V1F - F 57 V1F 8335
716 LOCATELLI Isabelle 06:36:06 V2F - F 13 V2F 8120
717 NICOLE David 06:36:31 V1M - M 178 V1M 8633
718 RENAULT Guillaume 06:36:35 SEM - M 305 SEM 8073
719 HUMBRECHT Jean Christophe 06:37:56 V1M - M 179 V1M 8106
720 DESMAS David 06:38:23 SEM - M 306 SEM 8272
721 BOIDRON Dominique 06:38:25 V3M - M 13 V3M 8316
722 PINCHON Ellie 06:38:42 SEF - F 74 SEF 8820
722 FAURE David 06:38:42 SEM - M 307 SEM 8818
724 LEROY Laurent 06:38:51 V1M - M 180 V1M 8710
725 BOREY Clarisse 06:38:56 SEF - F 75 SEF 8948
726 DOUAUD Cedric 06:39:03 V1M - M 181 V1M 8503
727 MERLE Emmanuel 06:39:15 V1M - M 182 V1M 8359
727 MERLE Magali 06:39:15 V1F - F 58 V1F 8360
729 POTDEVIN Sandra 06:39:19 SEF TEAM KALENJI F 76 SEF 8013
730 MOLINA Laurence 06:39:30 V1F - F 59 V1F 8718
731 FERRANDEZ Franck 06:39:31 V1M - M 183 V1M 8178
732 MONIER Laurence 06:39:44 V1F TEAM KALENJI F 60 V1F 8028
733 PRAUD Dominique 06:40:33 V1M - M 184 V1M 8561
734 BRETENET Nathalie 06:40:34 SEF - F 77 SEF 8559
735 PRAUD Marie Claude 06:40:35 V1F - F 61 V1F 8560
736 MEAUX Frederic 06:40:45 V2M - M 74 V2M 8644
737 GRESSER Laurent 06:44:20 V1M - M 185 V1M 8146
738 CLAISSE Francois 06:44:21 V1M - M 186 V1M 8527
739 MAYET Marius 06:44:23 ESM - M 6 ESM 8562
740 CHOQUET Sabine 06:44:31 V1F - F 62 V1F 8397
741 BREANT Celine 06:44:35 V1F - F 64 V1F 8396
741 ANGELINI Sophie 06:44:35 V1F - F 63 V1F 8371
743 NGUYEN Nhan 06:45:35 V1M - M 187 V1M 19024
744 FROIDEVAUX Christel 06:45:40 V1F - F 65 V1F 8747
745 FROIDEVAUX Stephane 06:45:41 V1M - M 188 V1M 8746
745 JAMMES Christine 06:45:41 V2F - F 14 V2F 8811
747 COIFFARD Clarisse 06:45:42 V1F - F 66 V1F 8156
748 POISSON Laurent 06:47:41 V1M - M 189 V1M 8142
749 PALLANCHER Vincent 06:47:52 V1M - M 190 V1M 8268
750 STALTER Maryvonne 06:48:35 V2F - F 15 V2F 8165
751 MACCARD Xavier 06:49:56 V2M - M 75 V2M 8133
752 AUDIGER Samuel 06:50:14 V1M - M 191 V1M 8687
753 COUSIN Olivier 06:52:25 V1M - M 192 V1M 8266
754 DERIQUEHEM Celia 06:52:26 SEF - F 78 SEF 8127
755 FICHOU Steven 06:52:28 SEM - M 308 SEM 8211
756 DEPOIVRE William 06:52:29 SEM - M 309 SEM 8212
757 DELALANDE Bruno 06:52:30 V2M - M 76 V2M 8196
758 RICHTER Celine 06:53:03 V1F - F 67 V1F 8173
759 GIRBET Philippe 06:53:29 V1M - M 193 V1M 8814
760 ROUSSEAU Jean Francois 06:55:58 V1M - M 194 V1M 8873
760 BOSC Gaelle 06:55:58 SEF - F 79 SEF 8643
762 MUYL Arnaud 06:56:14 SEM - M 310 SEM 8255
762 MUYL Soizic 06:56:14 SEF - F 80 SEF 8256
764 REVAUX Sophie 06:56:29 V1F - F 68 V1F 8553
765 CATALANO Nathalie 06:56:45 V1F - F 69 V1F 8496
766 DERRIEN Guillaume 06:56:47 SEM - M 311 SEM 8966
767 CAMPASOL Sebastien 06:57:06 V1M - M 195 V1M 8395
768 DUPUY Severine 06:57:12 SEF - F 81 SEF 8542
768 DOMERGUE Dominique 06:57:12 V2F - F 16 V2F 8862
770 AUDO Nadine 06:57:15 V1F - F 70 V1F 8550
771 DE MAILLARD Thibault 06:57:34 SEM - M 312 SEM 8024
771 SOCRATE Florent 06:57:34 SEM - M 313 SEM 8027
773 GRANIER Christophe 06:58:46 SEM - M 315 SEM 8913
773 DEMIERRE Calimero 06:58:46 SEM - M 314 SEM 8798
775 BERNHARD Jerome 06:58:54 SEM - M 316 SEM 8329
776 CABE Patrick 06:58:59 V1M - M 196 V1M 8501
777 GRANGe Pierre 06:59:17 SEM - M 317 SEM 8102
778 PONDAVEN Patrice 07:02:47 SEM - M 318 SEM 8728
779 BRIAND Mickael 07:02:48 V1M - M 197 V1M 8726
780 LEMOINE VERGE Sylvia 07:03:09 SEF - F 82 SEF 8425
781 HEINEMANN Louvaine 07:03:58 V3F - F 2 V3F 8368
782 HERLEZ Jean Bernard 07:04:21 V2M - M 77 V2M 8274
783 FOURTICQ Jean Marc 07:04:26 V1M - M 198 V1M 8080
784 DENNEZ Christian 07:04:27 V1M - M 199 V1M 8130
785 BERNARDIN Nolwenn 07:04:42 SEF - F 83 SEF 8606
786 LEPINE Laurent 07:08:43 SEM - M 319 SEM 8207
787 BRENON Romuald 07:10:43 SEM - M 320 SEM 8848
788 LUSSON Celine 07:10:45 SEF - F 84 SEF 8287
789 HUGUET Jennifer 07:10:51 SEF - F 85 SEF 8113
790 VALET Matthieu 07:11:37 SEM - M 321 SEM 8138
791 EDMOND Aymeric 07:11:39 SEM - M 322 SEM 8702
792 DUREAU Gaelle 07:11:47 SEF - F 86 SEF 8673
793 LAMOUROUX Alain 07:12:07 V2M - M 78 V2M 8076
794 ATTARD Patrick 07:13:04 V3M - M 14 V3M 8369
795 BLOT Emmanuelle 07:15:41 SEF - F 87 SEF 8598
796 GODEFROY Luc 07:16:31 V1M - M 200 V1M 19005
797 GODEFROY Sylvie 07:16:34 V1F - F 71 V1F 8641
798 WILLOCQ Marylyn 07:17:58 SEF - F 88 SEF 8450
799 MAIGNAN Nathalie 07:18:43 V1F - F 72 V1F 8202
800 SACRE Christophe 07:19:42 V2M - M 79 V2M 8712
801 BESSON Nathalie 07:21:14 V1F - F 73 V1F 8464
802 JANACEK Pierre 07:22:20 V2M - M 80 V2M 8481
803 TALARON Fabrice 07:22:22 V1M - M 201 V1M 8480
804 MEGUIRECHE Joued 07:22:23 V1M - M 202 V1M 8446
805 AUGIS Heloise 07:31:36 SEF - F 89 SEF 8449
806 GAMERRE Marc 07:47:19 V1M - M 203 V1M 8180
807 ZOURE Sophie 07:47:20 V1F - F 74 V1F 8800
808 DOUAUD Marina 07:50:10 V1F - F 75 V1F 8570
809 BRUNET Veronique 07:50:12 V2F - F 17 V2F 8523
809 GUILLET Fredy 07:50:12 V2M - M 81 V2M 8571
811 DARQUES Benoit 07:50:16 V1M - M 204 V1M 8254
812 COLLETTE Gregory 07:52:22 V1M - M 205 V1M 8203
813 PAUTY Gregoire 08:07:31 V1M - M 206 V1M 8276
813 PONCHON Sophie 08:07:31 V1F - F 76 V1F 8498
815 PUJOL David 08:20:58 SEM - M 323 SEM 8383
816 DOTT Christelle 08:22:45 SEF - F 90 SEF 8423
817 DORE Jacques 08:29:43 V2M - M 82 V2M 8331
818 LEFEVRE Mickael 08:29:44 SEM - M 324 SEM 8984
819 HERLEZ Josiane 08:33:35 V2F - F 18 V2F 8273
820 PUTHOSTE Jean Luc 08:37:12 V2M - M 83 V2M 8074
820 COLEMYN Ludovic 08:37:12 V1M - M 207 V1M 8109
822 BUENO Sandrine 08:43:21 V1F - F 77 V1F 8181
822 LIVERNETTE Nathalie 08:43:21 V1F - F 78 V1F 8291
824 MAZEAU Roland 08:45:21 V2M - M 84 V2M 8201


ReferencementCe site est listé dans la catégorie Sport : Sports extrêmes Dictionnaire
| Accueil | La Réunion  Vue du ciel | Météo | Cyclones | Volcan | Cirques de Mafate , Cilaos , Salazie | Photos Randonnées | Randonnées Réunion: Randos Espiègle , Courses montagne | Diagonale des Fous |  Marathon des Sables | Voyages Les stats du site | Fonds écran | Plan du site | Blog de runraid | Galerie photos Sport Réunion |